| time (UTC) | temp F | wind direction | speed MPH | gust MPH | rain 1hr in | rain 24hr in | rain mn in | humidity % | barometer mb |
| 20260831233056 | 75 | 133 | 1.0 | 4.0 | 0.00 | 0.00 | 0.00 | 42 | 1014.9 |
| 20260831231604 | 77 | 174 | 2.0 | 4.0 | 0.00 | 0.00 | 0.00 | 41 | 1014.9 |
| 20260831230048 | 77 | 315 | 0.0 | 4.0 | 0.00 | 0.00 | 0.00 | 40 | 1014.7 |
| 20260831224619 | 77 | 318 | 2.0 | 4.0 | 0.00 | 0.00 | 0.00 | 41 | 1014.7 |
| 20260831223036 | 77 | 311 | 1.0 | 3.0 | 0.00 | 0.00 | 0.00 | 40 | 1014.7 |
| 20260831221600 | 78 | 314 | 1.0 | 4.0 | 0.00 | 0.00 | 0.00 | 40 | 1014.9 |
| 20260831220047 | 78 | 307 | 1.0 | 6.0 | 0.00 | 0.00 | 0.00 | 40 | 1015.0 |
| 20260831214544 | 78 | 315 | 3.0 | 7.0 | 0.00 | 0.00 | 0.00 | 39 | 1015.1 |
| 20260831213038 | 78 | 303 | 3.0 | 8.0 | 0.00 | 0.00 | 0.00 | 38 | 1015.2 |
| 20260831211551 | 79 | 308 | 3.0 | 6.0 | 0.00 | 0.00 | 0.00 | 37 | 1015.2 |
| 20260831210036 | 79 | 321 | 3.0 | 6.0 | 0.00 | 0.00 | 0.00 | 37 | 1015.1 |
| 20260831204550 | 80 | 311 | 3.0 | 6.0 | 0.00 | 0.00 | 0.00 | 39 | 1015.0 |
| 20260831203101 | 81 | 312 | 2.0 | 7.0 | 0.00 | 0.00 | 0.00 | 38 | 1014.8 |
| 20260831201601 | 82 | 330 | 2.0 | 4.0 | 0.00 | 0.00 | 0.00 | 36 | 1014.6 |
| 20260831200056 | 83 | 300 | 1.0 | 6.0 | 0.00 | 0.00 | 0.00 | 35 | 1014.4 |
| 20260831194611 | 85 | 321 | 1.0 | 7.0 | 0.00 | 0.00 | 0.00 | 35 | 1014.1 |
| 20260831193100 | 85 | 297 | 2.0 | 6.0 | 0.00 | 0.00 | 0.00 | 33 | 1013.9 |
| 20260831191600 | 87 | 298 | 4.0 | 8.0 | 0.00 | 0.00 | 0.00 | 31 | 1013.7 |
| 20260831190132 | 88 | 265 | 3.0 | 8.0 | 0.00 | 0.00 | 0.00 | 30 | 1013.6 |
| 20260831184534 | 89 | 246 | 5.0 | 11.0 | 0.00 | 0.00 | 0.00 | 29 | 1013.4 |
| 20260831183033 | 91 | 259 | 8.0 | 12.0 | 0.00 | 0.00 | 0.00 | 28 | 1013.3 |
| 20260831181516 | 92 | 243 | 4.0 | 10.0 | 0.00 | 0.00 | 0.00 | 28 | 1013.2 |
| 20260831180006 | 93 | 256 | 4.0 | 11.0 | 0.00 | 0.00 | 0.00 | 28 | 1013.3 |
| 20260831174508 | 94 | 267 | 7.0 | 12.0 | 0.00 | 0.00 | 0.00 | 28 | 1013.2 |
| 20260831173008 | 94 | 310 | 6.0 | 10.0 | 0.00 | 0.00 | 0.00 | 28 | 1013.1 |
| 20260831171542 | 95 | 202 | 3.0 | 12.0 | 0.00 | 0.00 | 0.00 | 29 | 1013.1 |
| 20260831170049 | 96 | 282 | 4.0 | 9.0 | 0.00 | 0.00 | 0.00 | 29 | 1013.1 |
| 20260831164614 | 96 | 252 | 3.0 | 10.0 | 0.00 | 0.00 | 0.00 | 29 | 1013.0 |
| 20260831163046 | 96 | 110 | 8.0 | 14.0 | 0.00 | 0.00 | 0.00 | 29 | 1013.0 |
| 20260831161544 | 97 | 157 | 5.0 | 13.0 | 0.00 | 0.00 | 0.00 | 29 | 1013.1 |
| 20260831160042 | 97 | 212 | 7.0 | 13.0 | 0.00 | 0.00 | 0.00 | 30 | 1013.3 |
| 20260831154518 | 97 | 209 | 7.0 | 13.0 | 0.00 | 0.00 | 0.00 | 30 | 1013.3 |
| 20260831153006 | 97 | 193 | 5.0 | 9.0 | 0.00 | 0.00 | 0.00 | 30 | 1013.5 |
| 20260831151511 | 97 | 152 | 2.0 | 12.0 | 0.00 | 0.00 | 0.00 | 30 | 1013.5 |
| 20260831150011 | 96 | 191 | 0.0 | 5.0 | 0.00 | 0.00 | 0.00 | 31 | 1013.6 |
| 20260831144514 | 96 | 249 | 1.0 | 3.0 | 0.00 | 0.00 | 0.00 | 31 | 1013.7 |
| 20260831143010 | 96 | 279 | 1.0 | 10.0 | 0.00 | 0.00 | 0.00 | 30 | 1013.9 |
| 20260831141502 | 95 | 259 | 0.0 | 5.0 | 0.00 | 0.00 | 0.00 | 32 | 1014.1 |
| 20260831140002 | 95 | 249 | 2.0 | 9.0 | 0.00 | 0.00 | 0.00 | 32 | 1014.2 |
| 20260831134502 | 95 | 222 | 1.0 | 7.0 | 0.00 | 0.00 | 0.00 | 31 | 1014.3 |
| 20260831133102 | 95 | 266 | 0.0 | 8.0 | 0.00 | 0.00 | 0.00 | 33 | 1014.4 |
| 20260831131547 | 94 | 238 | 3.0 | 7.0 | 0.00 | 0.00 | 0.00 | 33 | 1014.5 |
| 20260831130105 | 94 | 268 | 4.0 | 9.0 | 0.00 | 0.00 | 0.00 | 32 | 1014.6 |
| 20260831124551 | 93 | 285 | 0.0 | 5.0 | 0.00 | 0.00 | 0.00 | 35 | 1014.7 |
| 20260831123041 | 93 | 103 | 3.0 | 6.0 | 0.00 | 0.00 | 0.00 | 33 | 1014.9 |
| 20260831121502 | 94 | 96 | 1.0 | 5.0 | 0.00 | 0.00 | 0.00 | 33 | 1015.1 |
| 20260831120020 | 91 | 240 | 0.0 | 5.0 | 0.00 | 0.00 | 0.00 | 35 | 1015.3 |
| 20260831114522 | 91 | 99 | 3.0 | 5.0 | 0.00 | 0.00 | 0.00 | 36 | 1015.4 |
| 20260831113135 | 90 | 15 | 0.0 | 5.0 | 0.00 | 0.00 | 0.00 | 37 | 1015.7 |
| 20260831111508 | 91 | 128 | 0.0 | 2.0 | 0.00 | 0.00 | 0.00 | 36 | 1015.7 |
| 20260831110050 | 88 | 98 | 2.0 | 7.0 | 0.00 | 0.00 | 0.00 | 39 | 1015.8 |
| 20260831104552 | 87 | 91 | 1.0 | 7.0 | 0.00 | 0.00 | 0.00 | 40 | 1015.8 |
| 20260831103043 | 87 | 91 | 3.0 | 7.0 | 0.00 | 0.00 | 0.00 | 40 | 1016.0 |
| 20260831101540 | 86 | 123 | 3.0 | 8.0 | 0.00 | 0.00 | 0.00 | 40 | 1016.0 |
| 20260831100049 | 86 | 136 | 0.0 | 7.0 | 0.00 | 0.00 | 0.00 | 41 | 1016.1 |
| 20260831094544 | 84 | 153 | 4.0 | 6.0 | 0.00 | 0.00 | 0.00 | 42 | 1016.0 |
| 20260831093044 | 84 | 7 | 0.0 | 7.0 | 0.00 | 0.00 | 0.00 | 43 | 1015.9 |
| 20260831091539 | 83 | 105 | 3.0 | 6.0 | 0.00 | 0.00 | 0.00 | 42 | 1015.9 |
| 20260831090035 | 83 | 97 | 3.0 | 6.0 | 0.00 | 0.00 | 0.00 | 43 | 1015.9 |
| 20260831084552 | 83 | 118 | 0.0 | 4.0 | 0.00 | 0.00 | 0.00 | 44 | 1015.9 |
| 20260831083056 | 82 | 117 | 2.0 | 5.0 | 0.00 | 0.00 | 0.00 | 44 | 1015.9 |
| 20260831081550 | 81 | 70 | 2.0 | 6.0 | 0.00 | 0.00 | 0.00 | 45 | 1015.9 |
| 20260831080041 | 79 | 3 | 2.0 | 5.0 | 0.00 | 0.00 | 0.00 | 46 | 1015.7 |
| 20260831074602 | 79 | 30 | 3.0 | 6.0 | 0.00 | 0.00 | 0.00 | 48 | 1015.7 |
| 20260831073051 | 78 | 357 | 1.0 | 4.0 | 0.00 | 0.00 | 0.00 | 50 | 1015.7 |
| 20260831071502 | 77 | 64 | 2.0 | 5.0 | 0.00 | 0.00 | 0.00 | 50 | 1015.6 |
| 20260831070052 | 76 | 351 | 2.0 | 5.0 | 0.00 | 0.00 | 0.00 | 50 | 1015.7 |
| 20260831064555 | 76 | 48 | 0.0 | 2.0 | 0.00 | 0.00 | 0.00 | 52 | 1015.6 |
| 20260831063051 | 75 | 36 | 0.0 | 2.0 | 0.00 | 0.00 | 0.00 | 53 | 1015.3 |
| 20260831061506 | 74 | 37 | 0.0 | 4.0 | 0.00 | 0.00 | 0.00 | 54 | 1015.1 |
| 20260831060041 | 74 | 11 | 2.0 | 4.0 | 0.00 | 0.00 | 0.00 | 55 | 1014.9 |
| 20260831054530 | 73 | 40 | 1.0 | 3.0 | 0.00 | 0.00 | 0.00 | 55 | 1014.9 |
| 20260831053043 | 74 | 30 | 1.0 | 3.0 | 0.00 | 0.00 | 0.00 | 55 | 1014.8 |
| 20260831051525 | 75 | 29 | 1.0 | 4.0 | 0.00 | 0.00 | 0.00 | 54 | 1014.8 |
| 20260831050008 | 75 | 20 | 1.0 | 4.0 | 0.00 | 0.00 | 0.00 | 54 | 1014.8 |
| 20260831044511 | 75 | 30 | 3.0 | 7.0 | 0.00 | 0.00 | 0.00 | 54 | 1014.7 |
| 20260831043005 | 76 | 12 | 3.0 | 10.0 | 0.00 | 0.00 | 0.00 | 53 | 1014.8 |
| 20260831041502 | 76 | 348 | 4.0 | 9.0 | 0.00 | 0.00 | 0.00 | 53 | 1014.9 |
| 20260831040004 | 76 | 345 | 3.0 | 8.0 | 0.00 | 0.00 | 0.00 | 52 | 1014.9 |
| 20260831034502 | 76 | 349 | 3.0 | 8.0 | 0.00 | 0.00 | 0.00 | 52 | 1014.9 |
| 20260831033102 | 76 | 13 | 4.0 | 9.0 | 0.00 | 0.00 | 0.00 | 51 | 1015.0 |
| 20260831031520 | 76 | 34 | 2.0 | 5.0 | 0.00 | 0.00 | 0.00 | 51 | 1015.1 |
| 20260831030030 | 77 | 29 | 2.0 | 5.0 | 0.00 | 0.00 | 0.00 | 50 | 1015.2 |
| 20260831024544 | 77 | 23 | 1.0 | 3.0 | 0.00 | 0.00 | 0.00 | 49 | 1015.3 |
| 20260831023103 | 78 | 25 | 1.0 | 4.0 | 0.00 | 0.00 | 0.00 | 48 | 1015.3 |
| 20260831021558 | 79 | 356 | 2.0 | 5.0 | 0.00 | 0.00 | 0.00 | 47 | 1015.1 |
| 20260831020114 | 79 | 330 | 4.0 | 8.0 | 0.00 | 0.00 | 0.00 | 46 | 1015.1 |
| 20260831014528 | 79 | 341 | 3.0 | 9.0 | 0.00 | 0.00 | 0.00 | 46 | 1015.1 |
| 20260831013028 | 80 | 339 | 3.0 | 8.0 | 0.00 | 0.00 | 0.00 | 46 | 1015.2 |
| 20260831011540 | 80 | 357 | 4.0 | 9.0 | 0.00 | 0.00 | 0.00 | 46 | 1015.2 |
| 20260831010055 | 79 | 358 | 4.0 | 7.0 | 0.00 | 0.00 | 0.00 | 46 | 1015.2 |
| 20260831004549 | 80 | 18 | 3.0 | 7.0 | 0.00 | 0.00 | 0.00 | 46 | 1015.0 |
| 20260831003050 | 80 | 13 | 3.0 | 7.0 | 0.00 | 0.00 | 0.00 | 46 | 1015.0 |
| 20260831001504 | 79 | 9 | 2.0 | 5.0 | 0.00 | 0.00 | 0.00 | 47 | 1015.0 |
| 20260831000056 | 78 | 338 | 2.0 | 4.0 | 0.00 | 0.00 | 0.00 | 51 | 1014.9 |
| 20260830234538 | 78 | 336 | 1.0 | 3.0 | 0.00 | 0.00 | 0.00 | 53 | 1014.8 |